• In Denmark
  • List of Countries
  • For 7 days
  • Water Temperature
  • Satellite Maps
  • Weather Map
  • Weather Widgets
  • user-avatar
    Login

    Hourly Weather Szczerez

    Today, 15 November, Thursday

    Time Temperature Precipitation Wind Pressure Humidity
    00:00 +4°C° 0 mm 2 mps 723 mmHg 93%
    01:00 +5°C° 0 mm 1 mps 724 mmHg 93%
    02:00 +5°C° 0 mm 1 mps 724 mmHg 92%
    03:00 +5°C° 0 mm 1 mps 724 mmHg 92%
    04:00 +5°C° 0 mm 1 mps 724 mmHg 91%
    05:00 +4°C° 0 mm 1 mps 724 mmHg 92%
    06:00 +4°C° 0 mm 1 mps 724 mmHg 92%
    07:00 +4°C° 0 mm 1 mps 724 mmHg 92%
    08:00 +5°C° 0.1 mm 1 mps 724 mmHg 89%
    09:00 +5°C° 0.1 mm 2 mps 724 mmHg 86%
    10:00 +6°C° 0.1 mm 2 mps 724 mmHg 82%
    11:00 +6°C° 0.1 mm 2 mps 724 mmHg 79%
    12:00 +6°C° 0.1 mm 2 mps 724 mmHg 76%
    13:00 +7°C° 0.1 mm 2 mps 724 mmHg 73%
    14:00 +6°C° 0.1 mm 2 mps 724 mmHg 76%
    15:00 +5°C° 0.1 mm 2 mps 724 mmHg 79%
    16:00 +5°C° 0.1 mm 2 mps 724 mmHg 82%
    17:00 +4°C° 0 mm 2 mps 724 mmHg 84%
    18:00 +4°C° 0 mm 2 mps 724 mmHg 86%
    19:00 +3°C° 0 mm 2 mps 724 mmHg 88%
    20:00 +3°C° 0 mm 2 mps 724 mmHg 90%
    21:00 +3°C° 0 mm 1 mps 724 mmHg 92%
    22:00 +3°C° 0 mm 1 mps 725 mmHg 93%
    23:00 +3°C° 0 mm 1 mps 725 mmHg 93%

    Tomorrow, 16 November, Friday

    Time Temperature Precipitation Wind Pressure Humidity
    00:00 +2°C° 0 mm 2 mps 725 mmHg 92%
    01:00 +2°C° 0 mm 2 mps 725 mmHg 92%
    02:00 +2°C° 0 mm 2 mps 725 mmHg 91%
    03:00 +2°C° 0 mm 2 mps 725 mmHg 91%
    04:00 +2°C° 0 mm 2 mps 725 mmHg 90%
    05:00 +2°C° 0 mm 2 mps 726 mmHg 90%
    06:00 +2°C° 0 mm 2 mps 726 mmHg 90%
    07:00 +1°C° 0 mm 2 mps 726 mmHg 90%
    08:00 +1°C° 0 mm 3 mps 726 mmHg 85%
    09:00 +2°C° 0 mm 3 mps 727 mmHg 81%
    10:00 +2°C° 0 mm 3 mps 727 mmHg 77%
    11:00 +2°C° 0 mm 3 mps 727 mmHg 75%
    12:00 +3°C° 0 mm 3 mps 727 mmHg 74%
    13:00 +3°C° 0 mm 3 mps 727 mmHg 73%
    14:00 +2°C° 0 mm 3 mps 727 mmHg 77%
    15:00 +2°C° 0 mm 2 mps 727 mmHg 80%
    16:00 +1°C° 0 mm 2 mps 727 mmHg 84%
    17:00 +1°C° 0 mm 2 mps 727 mmHg 85%
    18:00 -1°C° 0 mm 2 mps 727 mmHg 86%
    19:00 -1°C° 0 mm 2 mps 727 mmHg 87%
    20:00 -2°C° 0 mm 2 mps 727 mmHg 87%
    21:00 -2°C° 0 mm 2 mps 727 mmHg 86%
    22:00 -3°C° 0 mm 2 mps 728 mmHg 85%
    23:00 -3°C° 0 mm 2 mps 728 mmHg 84%

    Day after tomorrow, 17 November, Saturday

    Time Temperature Precipitation Wind Pressure Humidity
    00:00 -3°C° 0 mm 2 mps 728 mmHg 83%
    01:00 -3°C° 0 mm 2 mps 728 mmHg 81%
    02:00 -4°C° 0 mm 2 mps 728 mmHg 79%
    03:00 -4°C° 0 mm 2 mps 727 mmHg 77%
    04:00 -4°C° 0 mm 2 mps 727 mmHg 75%
    05:00 -4°C° 0 mm 2 mps 727 mmHg 74%
    06:00 -4°C° 0 mm 2 mps 727 mmHg 73%
    07:00 -4°C° 0 mm 2 mps 727 mmHg 72%
    08:00 -3°C° 0 mm 2 mps 727 mmHg 68%
    09:00 -1°C° 0 mm 2 mps 727 mmHg 63%
    10:00 0°C° 0 mm 3 mps 727 mmHg 59%
    11:00 +1°C° 0 mm 3 mps 727 mmHg 59%
    12:00 +1°C° 0 mm 3 mps 727 mmHg 59%
    13:00 +2°C° 0 mm 3 mps 727 mmHg 58%
    14:00 +1°C° 0 mm 3 mps 726 mmHg 64%
    15:00 +1°C° 0 mm 2 mps 726 mmHg 70%
    16:00 -2°C° 0 mm 2 mps 726 mmHg 76%
    17:00 -2°C° 0 mm 2 mps 726 mmHg 78%
    18:00 -3°C° 0 mm 2 mps 726 mmHg 79%
    19:00 -1°C° 0 mm 1 mps 726 mmHg 81%
    20:00 -1°C° 0 mm 1 mps 726 mmHg 81%
    21:00 -1°C° 0 mm 1 mps 726 mmHg 80%
    22:00 -2°C° 0 mm 1 mps 726 mmHg 80%
    23:00 -2°C° 0 mm 1 mps 725 mmHg 79%

    18 November, Sunday

    Time Temperature Precipitation Wind Pressure Humidity
    00:00 -2°C° 0 mm 1 mps 725 mmHg 78%
    01:00 -2°C° 0 mm 1 mps 725 mmHg 78%
    02:00 -2°C° 0 mm 1 mps 724 mmHg 77%
    03:00 -2°C° 0 mm 1 mps 724 mmHg 77%
    04:00 -2°C° 0 mm 1 mps 723 mmHg 76%
    05:00 -2°C° 0 mm 1 mps 723 mmHg 76%
    06:00 -2°C° 0 mm 1 mps 723 mmHg 76%
    07:00 -3°C° 0 mm 0 mps 723 mmHg 75%
    08:00 0°C° 0 mm 1 mps 722 mmHg 67%
    09:00 +1°C° 0 mm 1 mps 722 mmHg 60%
    10:00 +3°C° 0 mm 1 mps 722 mmHg 52%
    11:00 +4°C° 0 mm 1 mps 721 mmHg 48%
    12:00 +3°C° 0 mm 2 mps 721 mmHg 45%
    13:00 +4°C° 0 mm 2 mps 720 mmHg 41%
    14:00 +2°C° 0 mm 2 mps 719 mmHg 45%
    15:00 +2°C° 0 mm 1 mps 718 mmHg 48%
    16:00 +1°C° 0 mm 1 mps 718 mmHg 52%
    17:00 0°C° 0.1 mm 1 mps 717 mmHg 55%
    18:00 0°C° 0.1 mm 1 mps 717 mmHg 57%
    19:00 0°C° 0.1 mm 1 mps 717 mmHg 60%
    20:00 0°C° 0.1 mm 1 mps 716 mmHg 66%
    21:00 0°C° 0.1 mm 1 mps 716 mmHg 71%
    22:00 -1°C° 0.1 mm 1 mps 716 mmHg 77%
    23:00 -1°C° 0.1 mm 1 mps 715 mmHg 80%

    19 November, Monday

    Time Temperature Precipitation Wind Pressure Humidity
    00:00 -1°C° 0.1 mm 1 mps 715 mmHg 83%
    01:00 -1°C° 0.1 mm 1 mps 715 mmHg 86%
    02:00 -1°C° 0.2 mm 1 mps 714 mmHg 88%
    03:00 -1°C° 0.2 mm 1 mps 714 mmHg 90%
    04:00 -1°C° 0.2 mm 1 mps 714 mmHg 91%
    05:00 -1°C° 0.2 mm 1 mps 714 mmHg 92%
    06:00 -1°C° 0.2 mm 1 mps 713 mmHg 93%
    07:00 -1°C° 0.2 mm 1 mps 713 mmHg 94%
    08:00 0°C° 0.1 mm 1 mps 713 mmHg 89%
    09:00 0°C° 0.1 mm 1 mps 714 mmHg 85%
    10:00 -1°C° 0.1 mm 2 mps 714 mmHg 80%
    11:00 -1°C° 0 mm 2 mps 713 mmHg 78%
    12:00 +1°C° 0 mm 2 mps 713 mmHg 76%
    13:00 +1°C° 0 mm 2 mps 713 mmHg 74%
    14:00 -1°C° 0 mm 2 mps 713 mmHg 78%
    15:00 +1°C° 0 mm 1 mps 713 mmHg 82%
    16:00 0°C° 0 mm 1 mps 713 mmHg 86%
    17:00 0°C° 0 mm 1 mps 713 mmHg 87%
    18:00 -1°C° 0 mm 1 mps 713 mmHg 89%
    19:00 -1°C° 0 mm 1 mps 713 mmHg 91%
    20:00 -1°C° 0 mm 1 mps 713 mmHg 90%
    21:00 -1°C° 0 mm 1 mps 713 mmHg 90%
    22:00 -1°C° 0 mm 1 mps 713 mmHg 90%
    23:00 -1°C° 0 mm 1 mps 713 mmHg 91%

    20 November, Tuesday

    Time Temperature Precipitation Wind Pressure Humidity
    00:00 -1°C° 0 mm 1 mps 713 mmHg 91%
    01:00 -1°C° 0 mm 1 mps 713 mmHg 91%
    02:00 -1°C° 0 mm 1 mps 712 mmHg 92%
    03:00 -1°C° 0 mm 1 mps 712 mmHg 92%
    04:00 -2°C° 0 mm 1 mps 712 mmHg 93%
    05:00 -1°C° 0 mm 1 mps 712 mmHg 93%
    06:00 -1°C° 0 mm 1 mps 712 mmHg 93%
    07:00 -1°C° 0 mm 1 mps 711 mmHg 92%
    08:00 0°C° 0.1 mm 1 mps 711 mmHg 90%
    09:00 -1°C° 0.1 mm 2 mps 711 mmHg 87%
    10:00 +1°C° 0.1 mm 2 mps 711 mmHg 84%
    11:00 +1°C° 0.3 mm 2 mps 710 mmHg 85%
    12:00 +1°C° 0.3 mm 2 mps 709 mmHg 86%
    13:00 +2°C° 0.3 mm 2 mps 709 mmHg 87%
    14:00 +1°C° 0.2 mm 2 mps 708 mmHg 90%
    15:00 +1°C° 0.2 mm 2 mps 707 mmHg 92%
    16:00 +1°C° 0.2 mm 2 mps 706 mmHg 94%
    17:00 +1°C° 0.9 mm 2 mps 706 mmHg 94%
    18:00 +1°C° 0.9 mm 2 mps 705 mmHg 94%
    19:00 +1°C° 0.9 mm 2 mps 704 mmHg 95%
    20:00 +1°C° 0.7 mm 2 mps 704 mmHg 95%
    21:00 +1°C° 0.7 mm 2 mps 703 mmHg 96%
    22:00 +1°C° 0.7 mm 2 mps 703 mmHg 96%
    23:00 +2°C° 0.3 mm 2 mps 702 mmHg 96%
    Show more